Year,Month,Day,Hour,Minute,Value (Times are PST for temperature in C)
2014,11,29,15,21,1.90
2014,11,29,15,22,1.90
2014,11,29,15,23,1.90
2014,11,29,15,24,1.80
2014,11,29,15,25,1.80
2014,11,29,15,26,1.80
2014,11,29,15,27,1.80
2014,11,29,15,28,1.80
2014,11,29,15,29,1.80
2014,11,29,15,30,1.80
2014,11,29,15,31,1.70
2014,11,29,15,32,1.70
2014,11,29,15,33,1.70
2014,11,29,15,34,1.70
2014,11,29,15,35,1.70
2014,11,29,15,36,1.60
2014,11,29,15,37,1.60
2014,11,29,15,38,1.60
2014,11,29,15,39,1.60
2014,11,29,15,40,1.50
2014,11,29,15,41,1.50
2014,11,29,15,42,1.40
2014,11,29,15,43,1.40
2014,11,29,15,44,1.30
2014,11,29,15,45,1.30
2014,11,29,15,46,1.30
2014,11,29,15,47,1.20
2014,11,29,15,48,1.20
2014,11,29,15,49,1.20
2014,11,29,15,50,1.20
2014,11,29,15,51,1.20
2014,11,29,15,52,1.20
2014,11,29,15,53,1.20
2014,11,29,15,54,1.20
2014,11,29,15,55,1.20
2014,11,29,15,56,1.10
2014,11,29,15,57,1.10
2014,11,29,15,58,1.10
2014,11,29,15,59,1.00
2014,11,29,16,00,1.00
2014,11,29,16,01,0.90
2014,11,29,16,02,0.90
2014,11,29,16,03,0.90
2014,11,29,16,04,0.90
2014,11,29,16,05,0.90
2014,11,29,16,06,0.90
2014,11,29,16,07,0.90
2014,11,29,16,08,0.90
2014,11,29,16,09,0.90
2014,11,29,16,10,0.80
2014,11,29,16,11,0.80
2014,11,29,16,12,0.80
2014,11,29,16,13,0.80
2014,11,29,16,14,0.80
2014,11,29,16,15,0.80
2014,11,29,16,16,0.80
2014,11,29,16,17,0.70
2014,11,29,16,18,0.70
2014,11,29,16,19,0.70
2014,11,29,16,20,0.60
2014,11,29,16,21,0.60
2014,11,29,16,22,0.60
2014,11,29,16,23,0.50
2014,11,29,16,24,0.50
2014,11,29,16,25,0.50
2014,11,29,16,26,0.40
2014,11,29,16,27,0.40
2014,11,29,16,28,0.40
2014,11,29,16,29,0.40
2014,11,29,16,30,0.40
2014,11,29,16,31,0.30
2014,11,29,16,32,0.30
2014,11,29,16,33,0.20
2014,11,29,16,34,0.20
2014,11,29,16,35,0.10
2014,11,29,16,36,0.00
2014,11,29,16,37,0.00
2014,11,29,16,38,-0.10
2014,11,29,16,39,-0.20
2014,11,29,16,40,-0.20
2014,11,29,16,41,-0.30
2014,11,29,16,42,-0.30
2014,11,29,16,43,-0.40
2014,11,29,16,44,-0.50
2014,11,29,16,45,-0.50
2014,11,29,16,46,-0.60
2014,11,29,16,47,-0.70
2014,11,29,16,48,-0.70
2014,11,29,16,49,-0.80
2014,11,29,16,50,-0.90
2014,11,29,16,51,-0.90
2014,11,29,16,52,-1.00
2014,11,29,16,53,-1.00
2014,11,29,16,54,-1.10
2014,11,29,16,55,-1.10
2014,11,29,16,56,-1.20
2014,11,29,16,57,-1.20
2014,11,29,16,58,-1.20
2014,11,29,16,59,-1.30
2014,11,29,17,00,-1.30
2014,11,29,17,01,-1.30
2014,11,29,17,02,-1.40
2014,11,29,17,03,-1.40
2014,11,29,17,04,-1.40
2014,11,29,17,05,-1.50
2014,11,29,17,06,-1.50
2014,11,29,17,07,-1.60
2014,11,29,17,08,-1.60
2014,11,29,17,09,-1.60
2014,11,29,17,10,-1.70
2014,11,29,17,11,-1.70
2014,11,29,17,12,-1.70
2014,11,29,17,13,-1.80
2014,11,29,17,14,-1.80
2014,11,29,17,15,-1.80
2014,11,29,17,16,-1.80
2014,11,29,17,17,-1.90
2014,11,29,17,18,-1.90
2014,11,29,17,19,-1.90
2014,11,29,17,20,-2.00
2014,11,29,17,21,-2.00
2014,11,29,17,22,-2.00
2014,11,29,17,23,-2.00
2014,11,29,17,24,-2.10
2014,11,29,17,25,-2.10
2014,11,29,17,26,-2.10
2014,11,29,17,27,-2.10
2014,11,29,17,28,-2.20
2014,11,29,17,29,-2.20
2014,11,29,17,30,-2.20
2014,11,29,17,31,-2.20
2014,11,29,17,32,-2.20
2014,11,29,17,33,-2.30
2014,11,29,17,34,-2.30
2014,11,29,17,35,-2.30
2014,11,29,17,36,-2.40
2014,11,29,17,37,-2.40
2014,11,29,17,38,-2.40
2014,11,29,17,39,-2.40
2014,11,29,17,40,-2.40
2014,11,29,17,41,-2.40
2014,11,29,17,42,-2.40
2014,11,29,17,43,-2.40
2014,11,29,17,44,-2.40
2014,11,29,17,45,-2.50
2014,11,29,17,46,-2.50
2014,11,29,17,47,-2.50
2014,11,29,17,48,-2.50
2014,11,29,17,49,-2.50
2014,11,29,17,50,-2.50
2014,11,29,17,51,-2.50
2014,11,29,17,52,-2.60
2014,11,29,17,53,-2.60
2014,11,29,17,54,-2.60
2014,11,29,17,55,-2.60
2014,11,29,17,56,-2.70
2014,11,29,17,57,-2.70
2014,11,29,17,58,-2.70
2014,11,29,17,59,-2.80
2014,11,29,18,00,-2.80
2014,11,29,18,01,-2.80
2014,11,29,18,02,-2.80
2014,11,29,18,03,-2.80
2014,11,29,18,04,-2.80
2014,11,29,18,05,-2.80
2014,11,29,18,06,-2.80
2014,11,29,18,07,-2.80
2014,11,29,18,08,-2.80
2014,11,29,18,09,-2.80
2014,11,29,18,10,-2.80
2014,11,29,18,11,-2.80
2014,11,29,18,12,-2.80
2014,11,29,18,13,-2.80
2014,11,29,18,14,-2.80
2014,11,29,18,15,-2.80
2014,11,29,18,16,-2.80
2014,11,29,18,17,-2.80
2014,11,29,18,18,-2.90
2014,11,29,18,19,-2.90
2014,11,29,18,20,-2.90
2014,11,29,18,21,-2.90
2014,11,29,18,22,-3.00
2014,11,29,18,23,-3.00
2014,11,29,18,24,-3.10
2014,11,29,18,25,-3.10
2014,11,29,18,26,-3.10
2014,11,29,18,27,-3.10
2014,11,29,18,28,-3.10
2014,11,29,18,29,-3.20
2014,11,29,18,30,-3.20
2014,11,29,18,31,-3.20
2014,11,29,18,32,-3.20
2014,11,29,18,33,-3.20
2014,11,29,18,34,-3.20
2014,11,29,18,35,-3.20
2014,11,29,18,36,-3.20
2014,11,29,18,37,-3.20
2014,11,29,18,38,-3.20
2014,11,29,18,39,-3.30
2014,11,29,18,40,-3.30
2014,11,29,18,41,-3.30
2014,11,29,18,42,-3.30
2014,11,29,18,43,-3.30
2014,11,29,18,44,-3.40
2014,11,29,18,45,-3.40
2014,11,29,18,46,-3.50
2014,11,29,18,47,-3.50
2014,11,29,18,48,-3.60
2014,11,29,18,49,-3.60
2014,11,29,18,50,-3.60
2014,11,29,18,51,-3.70
2014,11,29,18,52,-3.70
2014,11,29,18,53,-3.70
2014,11,29,18,54,-3.70
2014,11,29,18,55,-3.80
2014,11,29,18,56,-3.80
2014,11,29,18,57,-3.80
2014,11,29,18,58,-3.80
2014,11,29,18,59,-3.80
2014,11,29,19,00,-3.80
2014,11,29,19,01,-3.80
2014,11,29,19,02,-3.80
2014,11,29,19,03,-3.80
2014,11,29,19,04,-3.80
2014,11,29,19,05,-3.80
2014,11,29,19,06,-3.90
2014,11,29,19,07,-3.90
2014,11,29,19,08,-3.90
2014,11,29,19,09,-3.90
2014,11,29,19,10,-3.90
2014,11,29,19,11,-3.90
2014,11,29,19,12,-3.90
2014,11,29,19,13,-3.90
2014,11,29,19,14,-3.90
2014,11,29,19,15,-3.90
2014,11,29,19,16,-3.90
2014,11,29,19,17,-3.90
2014,11,29,19,18,-3.90
2014,11,29,19,19,-3.90
2014,11,29,19,20,-3.90
2014,11,29,19,21,-3.90
2014,11,29,19,22,-3.90
2014,11,29,19,23,-3.90
2014,11,29,19,24,-3.90
2014,11,29,19,25,-3.90
2014,11,29,19,26,-3.90
2014,11,29,19,27,-3.90
2014,11,29,19,28,-3.90
2014,11,29,19,29,-3.90
2014,11,29,19,30,-3.90
2014,11,29,19,31,-3.90
2014,11,29,19,32,-3.90
2014,11,29,19,33,-3.90
2014,11,29,19,34,-3.90
2014,11,29,19,35,-3.90
2014,11,29,19,36,-3.90
2014,11,29,19,37,-3.90
2014,11,29,19,38,-4.00
2014,11,29,19,39,-4.00
2014,11,29,19,40,-4.10
2014,11,29,19,41,-4.10
2014,11,29,19,42,-4.10
2014,11,29,19,43,-4.10
2014,11,29,19,44,-4.10
2014,11,29,19,45,-4.20
2014,11,29,19,46,-4.20
2014,11,29,19,47,-4.20
2014,11,29,19,48,-4.20
2014,11,29,19,49,-4.20
2014,11,29,19,50,-4.20
2014,11,29,19,51,-4.20
2014,11,29,19,52,-4.20
2014,11,29,19,53,-4.20
2014,11,29,19,54,-4.20
2014,11,29,19,55,-4.20
2014,11,29,19,56,-4.20
2014,11,29,19,57,-4.20
2014,11,29,19,58,-4.20
2014,11,29,19,59,-4.20
2014,11,29,20,00,-4.20
2014,11,29,20,01,-4.20
2014,11,29,20,02,-4.10
2014,11,29,20,03,-4.10
2014,11,29,20,04,-4.10
2014,11,29,20,05,-4.10
2014,11,29,20,06,-4.10
2014,11,29,20,07,-4.10
2014,11,29,20,08,-4.20
2014,11,29,20,09,-4.20
2014,11,29,20,10,-4.20
2014,11,29,20,11,-4.20
2014,11,29,20,12,-4.30
2014,11,29,20,13,-4.30
2014,11,29,20,14,-4.30
2014,11,29,20,15,-4.30
2014,11,29,20,16,-4.40
2014,11,29,20,17,-4.40
2014,11,29,20,18,-4.40
2014,11,29,20,19,-4.50
2014,11,29,20,20,-4.50
2014,11,29,20,21,-4.50
2014,11,29,20,22,-4.50
2014,11,29,20,23,-4.50
2014,11,29,20,24,-4.40
2014,11,29,20,25,-4.40
2014,11,29,20,26,-4.40
2014,11,29,20,27,-4.40
2014,11,29,20,28,-4.40
2014,11,29,20,29,-4.40
2014,11,29,20,30,-4.40
2014,11,29,20,31,-4.40
2014,11,29,20,32,-4.40
2014,11,29,20,33,-4.40
2014,11,29,20,34,-4.40
2014,11,29,20,35,-4.40
2014,11,29,20,36,-4.40
2014,11,29,20,37,-4.40
2014,11,29,20,38,-4.40
2014,11,29,20,39,-4.40
2014,11,29,20,40,-4.50
2014,11,29,20,41,-4.50
2014,11,29,20,42,-4.50
2014,11,29,20,43,-4.50
2014,11,29,20,44,-4.60
2014,11,29,20,45,-4.60
2014,11,29,20,46,-4.60
2014,11,29,20,47,-4.60
2014,11,29,20,48,-4.60
2014,11,29,20,49,-4.60
2014,11,29,20,50,-4.60
2014,11,29,20,51,-4.60
2014,11,29,20,52,-4.60
2014,11,29,20,53,-4.60
2014,11,29,20,54,-4.70
2014,11,29,20,55,-4.70
2014,11,29,20,56,-4.70
2014,11,29,20,57,-4.70
2014,11,29,20,58,-4.70
2014,11,29,20,59,-4.70
2014,11,29,21,00,-4.70
2014,11,29,21,01,-4.70
2014,11,29,21,02,-4.70
2014,11,29,21,03,-4.70
2014,11,29,21,04,-4.70
2014,11,29,21,05,-4.70
2014,11,29,21,06,-4.80
2014,11,29,21,07,-4.80
2014,11,29,21,08,-4.80
2014,11,29,21,09,-4.80
2014,11,29,21,10,-4.80
2014,11,29,21,11,-4.80
2014,11,29,21,12,-4.80
2014,11,29,21,13,-4.90
2014,11,29,21,14,-4.90
2014,11,29,21,15,-4.90
2014,11,29,21,16,-4.90
2014,11,29,21,17,-4.90
2014,11,29,21,18,-4.90
2014,11,29,21,19,-4.90
2014,11,29,21,20,-4.90
2014,11,29,21,21,-4.90
2014,11,29,21,22,-4.90
2014,11,29,21,23,-5.00
2014,11,29,21,24,-5.00
2014,11,29,21,25,-5.00
2014,11,29,21,26,-5.00
2014,11,29,21,27,-5.00
2014,11,29,21,28,-5.10
2014,11,29,21,29,-5.10
2014,11,29,21,30,-5.10
2014,11,29,21,31,-5.10
2014,11,29,21,32,-5.10
2014,11,29,21,33,-5.10
2014,11,29,21,34,-5.10
2014,11,29,21,35,-5.10
2014,11,29,21,36,-5.10
2014,11,29,21,37,-5.10
2014,11,29,21,38,-5.10
2014,11,29,21,39,-5.10
2014,11,29,21,40,-5.20
2014,11,29,21,41,-5.20
2014,11,29,21,42,-5.20
2014,11,29,21,43,-5.20
2014,11,29,21,44,-5.20
2014,11,29,21,45,-5.20
2014,11,29,21,46,-5.20
2014,11,29,21,47,-5.20
2014,11,29,21,48,-5.20
2014,11,29,21,49,-5.20
2014,11,29,21,50,-5.20
2014,11,29,21,51,-5.20
2014,11,29,21,52,-5.30
2014,11,29,21,53,-5.30
2014,11,29,21,54,-5.30
2014,11,29,21,55,-5.30
2014,11,29,21,56,-5.30
2014,11,29,21,57,-5.30
2014,11,29,21,58,-5.30
2014,11,29,21,59,-5.30
2014,11,29,22,00,-5.30
2014,11,29,22,01,-5.30
2014,11,29,22,02,-5.30
2014,11,29,22,03,-5.30
2014,11,29,22,04,-5.30
2014,11,29,22,05,-5.20
2014,11,29,22,06,-5.20
2014,11,29,22,07,-5.20
2014,11,29,22,08,-5.20
2014,11,29,22,09,-5.20
2014,11,29,22,10,-5.20
2014,11,29,22,11,-5.20
2014,11,29,22,12,-5.20
2014,11,29,22,13,-5.20
2014,11,29,22,14,-5.20
2014,11,29,22,15,-5.20
2014,11,29,22,16,-5.20
2014,11,29,22,17,-5.10
2014,11,29,22,18,-5.10
2014,11,29,22,19,-5.10
2014,11,29,22,20,-5.10
2014,11,29,22,21,-5.10
2014,11,29,22,22,-5.10
2014,11,29,22,23,-5.10
2014,11,29,22,24,-5.10
2014,11,29,22,25,-5.10
2014,11,29,22,26,-5.10
2014,11,29,22,27,-5.10
2014,11,29,22,28,-5.20
2014,11,29,22,29,-5.10
2014,11,29,22,30,-5.10
2014,11,29,22,31,-5.10
2014,11,29,22,32,-5.10
2014,11,29,22,33,-5.10
2014,11,29,22,34,-5.10
2014,11,29,22,35,-5.10
2014,11,29,22,36,-5.10
2014,11,29,22,37,-5.10
2014,11,29,22,38,-5.00
2014,11,29,22,39,-5.00
2014,11,29,22,40,-5.00
2014,11,29,22,41,-4.90
2014,11,29,22,42,-4.90
2014,11,29,22,43,-4.90
2014,11,29,22,44,-4.80
2014,11,29,22,45,-4.80
2014,11,29,22,46,-4.80
2014,11,29,22,47,-4.80
2014,11,29,22,48,-4.80
2014,11,29,22,49,-4.80
2014,11,29,22,50,-4.80
2014,11,29,22,51,-4.80
2014,11,29,22,52,-4.80
2014,11,29,22,53,-4.80
2014,11,29,22,54,-4.80
2014,11,29,22,55,-4.80
2014,11,29,22,56,-4.80
2014,11,29,22,57,-4.80
2014,11,29,22,58,-4.80
2014,11,29,22,59,-4.80
2014,11,29,23,00,-4.80
2014,11,29,23,01,-4.80
2014,11,29,23,02,-4.80
2014,11,29,23,03,-4.80
2014,11,29,23,04,-4.80
2014,11,29,23,05,-4.90
2014,11,29,23,06,-4.90
2014,11,29,23,07,-4.90
2014,11,29,23,08,-4.90
2014,11,29,23,09,-4.90
2014,11,29,23,10,-4.90
2014,11,29,23,11,-4.90
2014,11,29,23,12,-4.90
2014,11,29,23,13,-4.90
2014,11,29,23,14,-4.90
2014,11,29,23,15,-4.90
2014,11,29,23,16,-4.90
2014,11,29,23,17,-4.90
2014,11,29,23,18,-4.90
2014,11,29,23,19,-4.90
2014,11,29,23,20,-4.90
2014,11,29,23,21,-4.90
2014,11,29,23,22,-5.00
2014,11,29,23,23,-5.00
2014,11,29,23,24,-5.00
2014,11,29,23,25,-5.00
2014,11,29,23,26,-5.10
2014,11,29,23,27,-5.10
2014,11,29,23,28,-5.10
2014,11,29,23,29,-5.10
2014,11,29,23,30,-5.10
2014,11,29,23,31,-5.10
2014,11,29,23,32,-5.20
2014,11,29,23,33,-5.20
2014,11,29,23,34,-5.20
2014,11,29,23,35,-5.20
2014,11,29,23,36,-5.20
2014,11,29,23,37,-5.30
2014,11,29,23,38,-5.30
2014,11,29,23,39,-5.30
2014,11,29,23,40,-5.30
2014,11,29,23,41,-5.30
2014,11,29,23,42,-5.30
2014,11,29,23,43,-5.30
2014,11,29,23,44,-5.30
2014,11,29,23,45,-5.30
2014,11,29,23,46,-5.30
2014,11,29,23,47,-5.30
2014,11,29,23,48,-5.30
2014,11,29,23,49,-5.30
2014,11,29,23,50,-5.30
2014,11,29,23,51,-5.30
2014,11,29,23,52,-5.30
2014,11,29,23,53,-5.20
2014,11,29,23,54,-5.10
2014,11,29,23,55,-5.10
2014,11,29,23,56,-5.10
2014,11,29,23,57,-5.10
2014,11,29,23,58,-5.10
2014,11,29,23,59,-5.10
